SCP
0 0 0 -0 0 0 1 0 0 0 0 0 0 0 0 0 0 0 0 0 0 0 0 0 0 0 0 0 0 0 0 0 0 0 0 0 0 0 0 0 0 0 0
0 0 0 -0 0 0 0 0 0 0 0 0 0 0 0 0 0 0 0 0 0 0 0 0 0 0 0 0 0 0 0 0 0 0 0 0 0 0 0 0 0 0 0
0 0 0 0 -0 0 0 0 0 0 0 0 0 0 0 0 0 0 0 0 0 0 0 0 0 0 0 0 0 0 0 0 0 0 0 0 0 0 0 0 0 0 0
0 0 0 0 -0 -0 -0 -0 0 0 0 0 0 0 0 0 0 0 0 0 0 0 0 0 0 0 0 0 0 0 0 0 0 0 0 0 0 0 0 0 0 0 0
0 0 0 0 0 -0 -0 0 -0 0 0 0 0 0 0 0 0 0 0 0 0 0 0 0 0 0 0 0 0 0 0 0 0 0 0 0 0 0 0 0 0 0 0
0 0 0 -0 -0 -0 -0 -0 -0 -0 -0 -0 0 -0 0 0 0 0 0 0 0 0 0 0 0 0 0 0 0 0 0 0 0 0 0 0 0 0 0 0 0 0 0
0 0 0 0 -0 -0 -0 -0 -0 -0 -0 0 -0 0 0 0 0 0 0 0 0 0 0 0 0 0 0 0 0 0 0 0 0 0 0 0 0 0 0 0 0 0 0
0 0 0 0 -0 -0 -0 -0 -0 0 -0 0 0 -0 -0 0 0 0 0 0 0 0 0 0 0 0 0 0 0 0 0 0 0 0 0 0 0 0 0 0 0 0 0
0 0 0 0 0 0 -0 -0 -0 -0 -0 -0 -0 0 -0 -0 0 0 0 0 0 0 0 0 0 0 0 0 0 0 0 0 0 0 0 0 0 0 0 0 0 0 0
0 0 0 0 0 0 0 -0 -0 0 0 -0 -0 -0 0 -0 -0 0 0 0 0 0 0 0 0 0 0 0 0 0 0 0 0 0 0 0 0 0 0 0 0 0 0
0 0 0 0 0 0 0 0 -0 0 0 -0 -0 -0 0 -0 0 -0 0 0 0 0 0 0 0 0 0 0 0 0 0 0 0 0 0 0 0 0 0 0 0 0 0
0 0 0 0 0 0 0 0 0 0 0 0 0 -0 -0 0 0 0 0 -0 0 0 0 0 0 0 0 0 0 0 0 0 0 0 0 0 0 0 0 0 0 0 0
0 0 0 0 0 0 0 0 0 0 0 0 0 0 -0 0 0 0 0 0 0 0 0 0 0 0 0 0 0 0 0 0 0 0 0 0 0 0 0 0 0 0 0
0 0 0 0 0 0 0 0 0 0 0 0 0 0 0 0 0 0 0 0 0 0 0 0 0 0 0 0 0 0 0 0 0 0 0 0 0 0 0 0 0 0 0
0 0 0 0 0 0 0 0 0 0 0 0 0 0 0 0 0 0 0 0 0 0 0 0 0 0 0 0 0 0 0 0 0 0 0 0 0 0 0 0 0 0 0
0 0 0 0 0 0 0 0 0 0 0 0 0 0 0 0 0 0 0 0 0 0 0 0 0 0 0 0 0 0 0 0 0 0 0 0 0 0 0 0 0 0 0
0 0 0 0 0 0 0 0 0 0 0 0 0 0 0 0 0 0 0 0 0 0 0 0 0 0 0 0 0 0 0 0 0 0 0 0 0 0 0 0 0 0 0
0 0 0 0 0 0 0 0 -0 0 0 0 0 0 0 0 0 0 0 0 0 0 0 0 0 0 0 0 0 0 0 0 0 0 0 0 0 0 0 0 0 0 0
0 0 0 0 0 0 0 0 0 0 0 0 0 -0 0 0 0 0 0 0 0 0 0 0 0 0 0 0 0 0 0 0 0 0 0 0 0 0 0 0 0 0 0
0 0 0 0 0 0 0 0 0 0 0 0 -0 -0 0 0 0 0 0 0 0 0 0 0 0 0 0 0 0 0 0 0 0 0 0 0 0 0 0 0 0 0 0
0 0 0 0 0 0 0 0 0 0 0 0 0 0 0 0 0 0 0 0 0 0 0 0 0 0 0 0 0 0 0 0 0 0 0 0 0 0 0 0 0 0 0
0 0 0 0 0 0 0 0 0 0 -0 -0 0 0 0 0 0 0 0 0 0 0 0 0 0 0 0 0 0 0 0 0 0 0 0 0 0 0 0 0 0 0 0
0 0 0 0 0 0 0 0 0 0 0 0 0 0 0 0 0 -0 -0 -0 -0 0 0 0 0 0 0 0 0 0 0 0 0 0 0 0 0 0 0 0 0 0 0
0 0 0 0 0 0 0 0 0 -0 -0 -0 -0 0 0 0 0 0 -0 -0 -0 -0 0 0 0 0 0 0 0 0 0 0 0 0 0 0 0 0 0 0 0 0 0
0 0 0 0 0 0 0 0 0 0 0 0 0 0 0 0 0 0 0 0 -0 0 0 0 0 0 -0 -0 0 0 0 0 0 0 0 0 0 0 0 0 0 0 0
0 0 0 0 -0 -0 -0 -0 0 0 0 0 0 0 0 0 0 0 0 0 0 -0 0 0 0 0 0 -0 0 0 0 -0 0 0 0 0 0 0 0 0 0 0 0
Wind_Speed_500mb
67 63 52 47 34 36 39 38 50 47 49 89 91 93 92 93 92 97 93 87 82 76 73 70 65 61 64 59 57 53 50 47 40 37 36 34 30 28 28 29 32 35 37
75 80 79 56 45 50 39 37 35 41 47 57 86 98 101 97 94 94 91 87 84 82 79 75 71 64 59 62 60 57 53 50 42 38 27 18 14 22 28 28 31 36 36
62 70 73 77 51 44 56 43 31 34 33 43 48 79 97 101 89 93 90 89 87 84 81 77 72 68 66 63 61 59 57 53 47 44 33 13 15 14 13 15 17 27 36
52 68 72 69 67 52 35 48 40 32 44 24 51 60 89 86 100 96 92 92 82 82 78 72 69 72 70 67 62 57 59 57 56 49 51 47 20 12 14 15 26 33 41
53 72 82 77 60 62 52 52 47 48 40 47 47 46 66 88 91 90 90 86 86 81 81 76 71 75 71 69 66 60 60 62 62 60 54 56 56 52 39 25 36 36 39
60 72 79 82 80 74 65 46 46 51 49 70 65 57 47 63 80 87 88 85 87 85 82 85 79 69 73 74 71 65 63 64 66 66 65 65 61 63 61 51 40 53 44
63 75 86 80 82 84 72 64 60 46 48 40 60 95 92 68 63 76 86 84 83 85 83 82 86 85 77 74 74 71 72 70 68 67 69 69 73 69 61 57 55 59 48
80 80 76 71 76 80 74 69 65 58 44 46 45 54 90 87 82 68 81 81 87 86 74 73 77 83 85 77 81 79 76 76 74 69 68 71 75 76 77 73 64 36 32
80 80 78 72 68 73 71 64 64 54 44 44 45 48 56 77 74 73 70 77 79 83 82 76 72 71 77 74 76 87 82 81 78 71 70 73 81 81 81 86 83 77 38
82 85 88 83 75 67 66 58 52 51 44 41 42 44 45 60 66 69 47 69 61 74 81 82 77 73 69 70 66 75 87 85 82 81 75 77 77 93 78 80 81 74 61
83 90 92 79 73 63 63 55 47 53 47 34 38 41 37 35 52 61 61 54 65 60 53 57 73 73 68 65 66 66 70 86 83 81 79 77 72 67 56 46 34 21 28
82 82 83 81 75 65 63 64 50 53 47 36 32 37 40 32 36 48 50 42 49 40 43 36 46 78 70 68 69 71 73 79 82 81 65 62 51 44 34 34 32 29 21
87 83 76 71 66 69 63 61 55 49 44 35 31 32 38 37 32 30 52 56 52 42 45 43 50 64 56 55 70 76 78 70 56 54 52 45 39 32 27 25 17 13 14
78 75 73 68 79 89 68 64 57 49 40 38 40 30 32 37 32 33 34 36 55 59 61 61 48 23 33 36 39 42 43 37 48 45 42 44 39 35 28 22 22 27 24
78 75 72 82 79 69 63 61 50 43 38 33 40 40 24 27 31 32 28 26 47 62 58 52 38 50 46 46 52 47 41 49 56 51 46 42 38 33 30 29 29 27 24
76 77 76 73 70 66 60 56 44 40 34 33 37 36 32 18 21 28 24 22 32 45 46 31 70 65 61 65 60 57 61 66 62 60 51 44 40 40 36 32 29 29 25
81 76 77 68 71 67 60 50 39 37 34 33 34 35 27 23 18 17 19 19 21 22 23 48 76 79 75 81 74 69 69 65 58 57 51 47 39 35 33 32 28 25 20
83 73 67 63 60 56 46 35 29 29 30 34 34 30 24 22 18 13 16 18 20 26 33 41 32 34 39 41 55 61 65 63 59 53 46 44 44 36 29 25 22 20 17
70 63 53 49 50 48 40 28 20 19 24 29 28 26 26 17 16 16 19 21 31 40 43 47 50 43 57 58 60 67 69 66 56 48 44 38 31 30 25 19 16 17 14
63 52 45 45 44 40 34 28 25 23 23 22 20 24 23 12 14 18 26 30 34 45 56 64 64 68 71 63 61 64 69 67 61 49 38 36 27 20 22 17 14 10 9
56 38 42 45 42 35 27 21 20 18 18 17 14 14 10 11 17 27 37 44 56 65 69 70 71 74 71 69 63 57 56 52 54 50 39 33 30 25 19 14 10 4 3
46 41 42 39 35 35 26 18 14 12 11 9 6 1 6 13 25 36 47 58 66 72 78 82 79 72 67 61 54 54 53 49 37 41 42 33 24 16 12 10 3 2 3
37 37 35 35 28 29 29 24 24 19 16 13 13 14 16 26 35 45 56 65 71 77 76 76 76 69 61 63 57 51 45 42 40 37 34 24 18 12 10 6 2 4 6
25 24 29 33 28 25 25 29 32 30 33 37 36 32 31 33 43 52 58 61 62 66 66 64 62 64 61 56 52 47 43 41 39 30 22 17 13 10 6 2 1 3 4
10 14 21 28 32 35 36 36 34 33 40 44 43 41 38 38 41 43 43 44 49 50 52 54 51 52 50 47 45 41 37 29 23 19 18 13 7 3 3 5 5 5 6
5 6 17 25 34 41 45 38 35 35 38 35 33 34 33 30 28 33 38 33 27 24 27 28 26 30 34 38 37 33 29 24 18 17 11 7 7 9 10 9 8 9 11
Wind_Direction_500mb
6 351 336 288 326 341 320 279 261 252 260 245 237 238 239 238 235 233 234 234 235 234 233 235 235 232 230 231 232 235 235 236 238 248 252 260 259 259 254 247 249 246 240
10 15 12 356 266 309 330 306 274 259 248 261 252 245 245 242 242 237 234 235 235 236 235 233 233 234 234 231 231 233 234 234 232 240 253 270 256 238 245 246 241 235 228
359 4 7 10 355 290 316 331 318 282 255 253 267 261 248 244 243 243 239 235 234 234 236 236 234 232 232 234 235 234 233 234 231 232 226 204 207 184 223 235 227 218 218
346 350 354 355 357 352 327 299 309 301 288 246 262 257 239 234 247 247 245 241 235 232 232 235 231 231 229 233 235 237 237 237 234 231 229 224 198 186 172 192 191 203 205
339 341 343 342 341 346 349 345 303 294 296 286 263 282 245 244 249 249 245 247 243 237 232 233 233 231 232 234 237 239 240 239 240 236 234 232 232 230 231 200 198 203 209
326 329 331 328 329 332 332 338 326 310 287 275 280 278 310 248 243 238 241 248 247 243 238 234 235 237 238 236 238 241 244 245 243 242 239 236 233 233 228 230 216 209 196
323 329 329 324 319 322 320 317 316 320 303 302 274 276 274 285 249 245 244 241 248 248 242 237 236 238 243 242 241 241 245 243 245 246 244 243 241 243 243 242 227 207 197
328 328 329 324 319 318 317 312 309 311 310 298 298 270 277 280 279 241 246 251 251 253 254 249 242 242 245 247 245 242 242 244 244 245 246 246 245 247 247 246 234 199 184
329 329 330 325 320 320 320 319 309 303 304 302 294 292 273 276 271 275 250 240 248 253 257 252 245 244 245 244 248 245 239 242 244 245 248 251 250 250 247 251 245 240 176
324 326 324 325 321 315 320 319 315 302 293 295 292 299 287 262 269 253 249 242 239 250 252 248 245 240 241 244 246 243 238 239 242 244 248 256 256 245 245 231 231 216 210
315 319 322 320 321 312 316 315 320 320 291 284 289 294 295 280 257 261 263 260 254 235 234 255 248 242 236 238 241 243 240 237 240 243 245 245 235 226 210 197 180 176 156
311 313 313 320 322 318 311 313 311 325 305 281 284 297 293 289 256 253 261 260 257 253 262 248 262 254 246 235 238 239 233 232 232 240 230 211 192 178 173 168 160 157 154
313 317 316 314 308 309 305 307 302 318 318 291 290 295 297 291 269 256 250 252 253 258 260 257 268 251 244 245 234 224 219 218 211 193 169 169 172 163 153 152 139 111 147
314 317 319 314 310 314 303 299 296 304 315 303 304 295 293 294 287 268 265 261 252 249 255 250 254 223 198 156 155 164 152 153 167 170 173 170 169 162 159 137 154 171 168
315 320 319 319 320 319 316 312 295 295 304 300 308 308 289 287 283 275 267 243 246 234 245 222 211 160 158 163 164 166 169 181 183 169 165 157 144 130 137 160 156 148 152
316 318 321 325 327 323 321 315 301 296 295 296 304 311 298 280 273 270 267 258 232 245 229 219 184 185 182 183 186 181 180 175 171 162 145 131 139 145 148 148 143 138 135
318 321 331 330 324 317 312 309 304 296 290 296 303 307 306 284 264 261 268 254 226 239 235 206 188 175 179 186 183 174 162 152 143 135 132 137 141 144 140 136 134 131 127
325 326 327 324 328 332 332 318 303 298 298 303 306 308 299 282 267 235 238 234 198 188 189 188 178 158 149 161 156 146 139 131 127 126 135 137 134 129 127 127 128 126 131
327 324 324 329 330 336 342 338 324 308 305 311 314 308 292 276 259 221 210 195 190 174 171 166 176 185 137 140 135 132 124 116 123 129 124 122 126 136 133 129 133 124 107
329 327 334 333 329 333 332 336 332 330 323 313 312 299 285 262 227 207 185 175 175 164 160 153 148 144 137 131 133 130 127 128 135 138 136 134 128 140 148 142 120 103 96
338 338 339 341 343 346 338 336 329 324 316 314 315 295 276 236 201 182 164 159 153 146 141 137 132 128 126 128 129 129 128 130 135 138 143 154 154 144 138 134 128 101 45
351 352 352 353 354 358 358 352 339 350 356 351 335 232 183 188 177 168 158 152 150 145 138 133 127 128 130 129 129 126 131 136 143 158 152 147 143 139 142 149 120 26 11
357 359 5 6 12 18 29 34 44 38 41 58 83 107 133 153 156 153 151 145 144 138 136 135 137 139 137 133 137 144 147 154 152 147 142 142 144 152 145 142 93 39 27
6 26 42 44 45 47 50 55 58 68 78 81 82 92 112 127 135 137 136 138 141 142 143 138 133 134 143 148 151 156 157 156 155 152 151 144 151 159 159 127 352 338 320
22 65 66 68 68 70 70 71 77 84 87 93 98 101 100 103 110 118 122 125 129 138 142 144 149 153 156 160 160 158 156 153 149 153 164 164 161 179 237 244 250 276 298
276 78 107 107 97 91 85 78 76 70 67 80 96 106 112 121 131 137 136 135 131 135 144 152 159 163 159 154 155 154 158 162 163 173 185 201 232 243 245 244 259 285 292
Wind_Speed_850mb
67 63 52 47 34 36 39 38 50 47 49 89 91 93 92 93 92 97 93 87 82 76 73 70 65 61 64 59 57 53 50 47 40 37 36 34 30 28 28 29 32 35 37
75 80 79 56 45 50 39 37 35 41 47 57 86 98 101 97 94 94 91 87 84 82 79 75 71 64 59 62 60 57 53 50 42 38 27 18 14 22 28 28 31 36 36
62 70 73 77 51 44 56 43 31 34 33 43 48 79 97 101 89 93 90 89 87 84 81 77 72 68 66 63 61 59 57 53 47 44 33 13 15 14 13 15 17 27 36
52 68 72 69 67 52 35 48 40 32 44 24 51 60 89 86 100 96 92 92 82 82 78 72 69 72 70 67 62 57 59 57 56 49 51 47 20 12 14 15 26 33 41
53 72 82 77 60 62 52 52 47 48 40 47 47 46 66 88 91 90 90 86 86 81 81 76 71 75 71 69 66 60 60 62 62 60 54 56 56 52 39 25 36 36 39
60 72 79 82 80 74 65 46 46 51 49 70 65 57 47 63 80 87 88 85 87 85 82 85 79 69 73 74 71 65 63 64 66 66 65 65 61 63 61 51 40 53 44
63 75 86 80 82 84 72 64 60 46 48 40 60 95 92 68 63 76 86 84 83 85 83 82 86 85 77 74 74 71 72 70 68 67 69 69 73 69 61 57 55 59 48
80 80 76 71 76 80 74 69 65 58 44 46 45 54 90 87 82 68 81 81 87 86 74 73 77 83 85 77 81 79 76 76 74 69 68 71 75 76 77 73 64 36 32
80 80 78 72 68 73 71 64 64 54 44 44 45 48 56 77 74 73 70 77 79 83 82 76 72 71 77 74 76 87 82 81 78 71 70 73 81 81 81 86 83 77 38
82 85 88 83 75 67 66 58 52 51 44 41 42 44 45 60 66 69 47 69 61 74 81 82 77 73 69 70 66 75 87 85 82 81 75 77 77 93 78 80 81 74 61
83 90 92 79 73 63 63 55 47 53 47 34 38 41 37 35 52 61 61 54 65 60 53 57 73 73 68 65 66 66 70 86 83 81 79 77 72 67 56 46 34 21 28
82 82 83 81 75 65 63 64 50 53 47 36 32 37 40 32 36 48 50 42 49 40 43 36 46 78 70 68 69 71 73 79 82 81 65 62 51 44 34 34 32 29 21
87 83 76 71 66 69 63 61 55 49 44 35 31 32 38 37 32 30 52 56 52 42 45 43 50 64 56 55 70 76 78 70 56 54 52 45 39 32 27 25 17 13 14
78 75 73 68 79 89 68 64 57 49 40 38 40 30 32 37 32 33 34 36 55 59 61 61 48 23 33 36 39 42 43 37 48 45 42 44 39 35 28 22 22 27 24
78 75 72 82 79 69 63 61 50 43 38 33 40 40 24 27 31 32 28 26 47 62 58 52 38 50 46 46 52 47 41 49 56 51 46 42 38 33 30 29 29 27 24
76 77 76 73 70 66 60 56 44 40 34 33 37 36 32 18 21 28 24 22 32 45 46 31 70 65 61 65 60 57 61 66 62 60 51 44 40 40 36 32 29 29 25
81 76 77 68 71 67 60 50 39 37 34 33 34 35 27 23 18 17 19 19 21 22 23 48 76 79 75 81 74 69 69 65 58 57 51 47 39 35 33 32 28 25 20
83 73 67 63 60 56 46 35 29 29 30 34 34 30 24 22 18 13 16 18 20 26 33 41 32 34 39 41 55 61 65 63 59 53 46 44 44 36 29 25 22 20 17
70 63 53 49 50 48 40 28 20 19 24 29 28 26 26 17 16 16 19 21 31 40 43 47 50 43 57 58 60 67 69 66 56 48 44 38 31 30 25 19 16 17 14
63 52 45 45 44 40 34 28 25 23 23 22 20 24 23 12 14 18 26 30 34 45 56 64 64 68 71 63 61 64 69 67 61 49 38 36 27 20 22 17 14 10 9
56 38 42 45 42 35 27 21 20 18 18 17 14 14 10 11 17 27 37 44 56 65 69 70 71 74 71 69 63 57 56 52 54 50 39 33 30 25 19 14 10 4 3
46 41 42 39 35 35 26 18 14 12 11 9 6 1 6 13 25 36 47 58 66 72 78 82 79 72 67 61 54 54 53 49 37 41 42 33 24 16 12 10 3 2 3
37 37 35 35 28 29 29 24 24 19 16 13 13 14 16 26 35 45 56 65 71 77 76 76 76 69 61 63 57 51 45 42 40 37 34 24 18 12 10 6 2 4 6
25 24 29 33 28 25 25 29 32 30 33 37 36 32 31 33 43 52 58 61 62 66 66 64 62 64 61 56 52 47 43 41 39 30 22 17 13 10 6 2 1 3 4
10 14 21 28 32 35 36 36 34 33 40 44 43 41 38 38 41 43 43 44 49 50 52 54 51 52 50 47 45 41 37 29 23 19 18 13 7 3 3 5 5 5 6
5 6 17 25 34 41 45 38 35 35 38 35 33 34 33 30 28 33 38 33 27 24 27 28 26 30 34 38 37 33 29 24 18 17 11 7 7 9 10 9 8 9 11
Wind_Direction_850mb
6 351 336 288 326 341 320 279 261 252 260 245 237 238 239 238 235 233 234 234 235 234 233 235 235 232 230 231 232 235 235 236 238 248 252 260 259 259 254 247 249 246 240
10 15 12 356 266 309 330 306 274 259 248 261 252 245 245 242 242 237 234 235 235 236 235 233 233 234 234 231 231 233 234 234 232 240 253 270 256 238 245 246 241 235 228
359 4 7 10 355 290 316 331 318 282 255 253 267 261 248 244 243 243 239 235 234 234 236 236 234 232 232 234 235 234 233 234 231 232 226 204 207 184 223 235 227 218 218
346 350 354 355 357 352 327 299 309 301 288 246 262 257 239 234 247 247 245 241 235 232 232 235 231 231 229 233 235 237 237 237 234 231 229 224 198 186 172 192 191 203 205
339 341 343 342 341 346 349 345 303 294 296 286 263 282 245 244 249 249 245 247 243 237 232 233 233 231 232 234 237 239 240 239 240 236 234 232 232 230 231 200 198 203 209
326 329 331 328 329 332 332 338 326 310 287 275 280 278 310 248 243 238 241 248 247 243 238 234 235 237 238 236 238 241 244 245 243 242 239 236 233 233 228 230 216 209 196
323 329 329 324 319 322 320 317 316 320 303 302 274 276 274 285 249 245 244 241 248 248 242 237 236 238 243 242 241 241 245 243 245 246 244 243 241 243 243 242 227 207 197
328 328 329 324 319 318 317 312 309 311 310 298 298 270 277 280 279 241 246 251 251 253 254 249 242 242 245 247 245 242 242 244 244 245 246 246 245 247 247 246 234 199 184
329 329 330 325 320 320 320 319 309 303 304 302 294 292 273 276 271 275 250 240 248 253 257 252 245 244 245 244 248 245 239 242 244 245 248 251 250 250 247 251 245 240 176
324 326 324 325 321 315 320 319 315 302 293 295 292 299 287 262 269 253 249 242 239 250 252 248 245 240 241 244 246 243 238 239 242 244 248 256 256 245 245 231 231 216 210
315 319 322 320 321 312 316 315 320 320 291 284 289 294 295 280 257 261 263 260 254 235 234 255 248 242 236 238 241 243 240 237 240 243 245 245 235 226 210 197 180 176 156
311 313 313 320 322 318 311 313 311 325 305 281 284 297 293 289 256 253 261 260 257 253 262 248 262 254 246 235 238 239 233 232 232 240 230 211 192 178 173 168 160 157 154
313 317 316 314 308 309 305 307 302 318 318 291 290 295 297 291 269 256 250 252 253 258 260 257 268 251 244 245 234 224 219 218 211 193 169 169 172 163 153 152 139 111 147
314 317 319 314 310 314 303 299 296 304 315 303 304 295 293 294 287 268 265 261 252 249 255 250 254 223 198 156 155 164 152 153 167 170 173 170 169 162 159 137 154 171 168
315 320 319 319 320 319 316 312 295 295 304 300 308 308 289 287 283 275 267 243 246 234 245 222 211 160 158 163 164 166 169 181 183 169 165 157 144 130 137 160 156 148 152
316 318 321 325 327 323 321 315 301 296 295 296 304 311 298 280 273 270 267 258 232 245 229 219 184 185 182 183 186 181 180 175 171 162 145 131 139 145 148 148 143 138 135
318 321 331 330 324 317 312 309 304 296 290 296 303 307 306 284 264 261 268 254 226 239 235 206 188 175 179 186 183 174 162 152 143 135 132 137 141 144 140 136 134 131 127
325 326 327 324 328 332 332 318 303 298 298 303 306 308 299 282 267 235 238 234 198 188 189 188 178 158 149 161 156 146 139 131 127 126 135 137 134 129 127 127 128 126 131
327 324 324 329 330 336 342 338 324 308 305 311 314 308 292 276 259 221 210 195 190 174 171 166 176 185 137 140 135 132 124 116 123 129 124 122 126 136 133 129 133 124 107
329 327 334 333 329 333 332 336 332 330 323 313 312 299 285 262 227 207 185 175 175 164 160 153 148 144 137 131 133 130 127 128 135 138 136 134 128 140 148 142 120 103 96
338 338 339 341 343 346 338 336 329 324 316 314 315 295 276 236 201 182 164 159 153 146 141 137 132 128 126 128 129 129 128 130 135 138 143 154 154 144 138 134 128 101 45
351 352 352 353 354 358 358 352 339 350 356 351 335 232 183 188 177 168 158 152 150 145 138 133 127 128 130 129 129 126 131 136 143 158 152 147 143 139 142 149 120 26 11
357 359 5 6 12 18 29 34 44 38 41 58 83 107 133 153 156 153 151 145 144 138 136 135 137 139 137 133 137 144 147 154 152 147 142 142 144 152 145 142 93 39 27
6 26 42 44 45 47 50 55 58 68 78 81 82 92 112 127 135 137 136 138 141 142 143 138 133 134 143 148 151 156 157 156 155 152 151 144 151 159 159 127 352 338 320
22 65 66 68 68 70 70 71 77 84 87 93 98 101 100 103 110 118 122 125 129 138 142 144 149 153 156 160 160 158 156 153 149 153 164 164 161 179 237 244 250 276 298
276 78 107 107 97 91 85 78 76 70 67 80 96 106 112 121 131 137 136 135 131 135 144 152 159 163 159 154 155 154 158 162 163 173 185 201 232 243 245 244 259 285 292